BREEZE-M R/B, 40385

Orbit data source: Space-Track

BREEZE-M R/B, 40385 is space debris in HEO originally from a launch on Sun, 01 Feb 2015 UTC launched from the Tyuratam Missile And Space Complex (TTMTR). Debris objects in space refer to the collection of defunct objects orbiting the Earth. Examples of debris include non-operational satellites, rocket bodies, and fragments generated from explosions, collisions, or faulty payload assembly.

Loading next visibility...
Identifier
40385, 2015-005B
Orbit
HEO
Country
Flag of CISCIS
Related business
Manufacturer
Khrunichev
Mission
Spacecraft
Bus & Motor
BRIZ, Unknown motor
Mass
~1,600 kg wet, 1,600 kg dry
Launch date (UTC)
2015-02-01 (11 years ago)
Launch vehicle
Unknown
Launch site
Tyuratam Missile And Space Complex (TTMTR)
Object type
Payload
Rocket body
Debris
Shape & HBR
Cyl, 2.0 m
Radar Cross Section
15.135 m², Large (>1 m²)

Expand to show TLE details & history
Last TLE update: 3 days ago

TLE from 3 days ago
0 BREEZE-M R/B
1 40385U 15005B   26170.16015526 -.00000333  00000-0  00000-0 0  9993
2 40385  27.1424 273.7226 7558491 131.3302 323.7627  1.11107903 46174
Epoch: 2026-06-19T03:50Z
TLE epoch observation values (Epoch: 2026-06-19T03:50:37.414Z)
Latitude
0.00002°
Longitude
-51.36506°
Altitude
27,402.185 km
Speed
3.671 km/s
True Right ascension
18h 14m 44s
True Declination
0° 00' 00"
Sunlit
Object was in daylight at epoch
Visualization orbit readout
Latitude
Unknown
Longitude
Unknown
Altitude
Unknown
Speed
Unknown
Apparent Right ascension
Unknown
Apparent Declination
Unknown
Sunlit
N/A
Visualization observer readout
Local Sidereal Time
21:36:22
Azimuth
Unknown
Elevation
Unknown
Doppler factor
Unknown
Orbital elements
Apogee altitude
62,766.138 km
Perigee altitude
3,236.378 km
Semi-major axis
39,379.395 km
Eccentricity
0.75585
Inclination
27.1424°
RAAN
273.7226°
Arg. of periapsis
131.3302°
True anomaly
228.90565°
Mean anomaly
323.7627°
Eccentric anomaly
281.29443°
Mean motion
0.27774 °/min
Orbital period
1,296.17 mins
BSTAR
0
Loading maneuver chart data...
Computing Atmospheric mass density...
Loading historical data...
Loading historical data...
Loading historical data...
Loading historical data...
Loading historical data...
Loading historical data...
Loading historical data...
Other satellites on launch #5 in the year 2015 (2015-02-01 UTC)

Documentation

Showing up to 5 results
|